Terminal Aerodrome Forecast
Issued by NWS

Home | Current Version | Previous Version | Text Only | Print | Product List | Glossary On
Versions: 1 2 3 4 5 6 7 8 9 10 11 12 13 14 15 16 17 18 19 20 21 22 23 24 25
000
FTUS42 KMFL 051443 AAA
TAFOPF
TAF AMD
KOPF 051443Z 0515/0612 15015G23KT P6SM SCT030 SCT120
      TEMPO 0515/0518 BKN020
     FM060000 15009KT P6SM SCT015 BKN150=

USA.gov is the U.S. government's official web portal to all federal, state and local government web resources and services.